User: anonymous   Login
Location: Mentone
(34.5413°N, 85.5351°W)
Time: 20:33:21
(UTC-05:00)
Language:

Okean O Rocket - Orbit

View from above orbital plane
View from above orbital plane
View from above satellite
View from above satellite

Ground track
Ground track

The orbit data is extracted from the following two-line orbital elements,

1 25861U 99039B   15241.06794515  .00000153  00000-0  28302-4 0  9990
2 25861 098.0087 200.8609 0016726 046.2410 019.1465 14.78178940868546
Epoch (UTC): 29 August 2015 01:37:50
Eccentricity: 0.0016726
inclination: 98.0087°
perigee height: 623 km
apogee height: 647 km
right ascension of ascending node: 200.8609°
argument of perigee: 46.2410°
revolutions per day: 14.78178940
mean anomaly at epoch: 19.1465°
orbit number at epoch: 86854

The dashed part of the orbit path shows where the satellite is in the earth's shadow,  

DLR